"Time","Temp","Dewpoint","Humidity","Pressure","Direction","Speed","Gust","Precip","PrecipRate"
"00:04:57","73","71.8","96","29.79","123","3.3","12","0.00","0.05"
"00:09:59","73","71.7","95.4","29.79","119","4.5","11.5","0.00","0.03"
"00:14:56","73.1","71.6","95","29.79","147","5.3","13","0.00","0.02"
"00:19:57","73.2","71.7","95","29.79","158","3.6","11","0.00","0.01"
"00:24:58","73.3","71.8","95","29.79","143","3.8","12","0.00","0.01"
"00:29:56","73.3","71.8","95","29.79","165","3.6","14","0.00","0.00"
"00:34:58","73.4","71.9","95","29.79","133","5.4","11","0.00","0.00"
"00:39:58","73.5","71.8","94.2","29.79","159","4.9","11.5","0.00","0.00"
"00:44:57","73.5","72","94.7","29.80","148","4.6","14","0.00","0.00"
"00:49:59","73.6","72.1","95","29.80","160","5.6","13.8","0.01","0.01"
"00:54:59","73.5","72","95","29.80","137","4.5","14","0.02","0.02"
"00:59:56","73.4","71.9","95","29.80","143","4.7","12","0.03","0.02"
"01:04:58","73.3","71.8","95","29.79","135","3.8","10.4","0.12","0.09"
"01:09:58","73.1","71.7","95.3","29.79","157","4.7","12","0.23","0.21"
"01:14:58","73","71.8","96","29.79","173","5.1","11.5","0.29","0.28"
"01:19:59","72.8","71.6","96","29.78","153","3.3","9.2","0.30","0.30"
"01:24:56","72.7","71.5","96","29.78","158","3.2","11","0.30","0.30"
"01:29:57","72.7","71.5","96","29.78","164","3","12","0.31","0.31"
"01:34:56","72.7","71.5","96","29.78","135","4.5","12","0.31","0.31"
"01:39:58","72.7","71.5","96","29.78","132","5","12","0.31","0.31"
"01:44:58","72.8","71.6","96","29.78","139","4","12","0.32","0.31"
"01:49:57","72.8","71.6","96","29.77","143","4.8","12","0.33","0.33"
"01:54:58","72.7","71.5","96","29.77","159","5.6","14","0.34","0.32"
"01:59:59","72.7","71.5","96","29.77","146","4","11.5","0.35","0.33"
"02:04:56","72.6","71.4","96","29.77","144","4.6","10.4","0.35","0.32"
"02:09:57","72.6","71.4","96","29.77","132","4.3","11.5","0.35","0.23"
"02:14:57","72.6","71.4","96","29.77","156","4.2","10","0.35","0.12"
"02:19:58","72.6","71.4","96","29.76","134","3.8","10.4","0.35","0.06"
"02:24:58","72.6","71.4","96","29.76","150","5.5","13","0.35","0.05"
"02:29:57","72.6","71.4","96","29.77","162","4.8","11.5","0.35","0.05"
"02:34:57","72.6","71.3","95.5","29.77","136","3.8","12","0.35","0.04"
"02:39:57","72.6","71.2","95.2","29.77","170","4","11.5","0.35","0.04"
"02:44:56","72.6","71.1","95","29.77","150","4.4","10","0.35","0.04"
"02:49:57","72.6","71.1","95","29.77","184","3.2","10.4","0.37","0.03"
"02:54:58","71.6","68.7","90.7","29.77","253","2.1","5.8","0.42","0.04"
"02:59:57","70","67","90.2","29.78","271","1.9","5","0.52","0.15"
"03:04:58","68.7","66.2","91.9","29.78","234","1.7","5","0.56","0.21"
"03:09:57","67.6","65.5","92.8","29.78","287","2.6","9.2","0.58","0.23"
"03:14:56","66.8","64.9","93.7","29.78","308","2.9","10","0.60","0.25"
"03:19:57","66.4","64.8","94.7","29.78","261","2.4","6","0.61","0.26"
"03:24:59","66","64.5","95","29.78","289","1.9","7","0.61","0.26"
"03:29:57","65.6","64.1","95","29.78","303","3","9.2","0.62","0.27"
"03:34:57","65.2","63.7","95","29.78","334","1.3","5","0.62","0.27"
"03:39:58","64.9","63.4","95.2","29.78","335","1.3","3.5","0.63","0.28"
"03:44:58","64.7","63.5","96","29.78","314","1.6","5","0.63","0.28"
"03:49:57","64.5","63.3","96","29.77","355","2","4.6","0.63","0.28"
"03:54:57","64.4","63.2","96","29.77","355","1.2","4","0.63","0.26"
"03:59:59","64.3","63.1","96","29.77","355","1.5","4","0.63","0.21"
"04:04:58","64.2","63","96","29.77","344","1.9","7","0.63","0.11"
"04:09:56","64","62.8","96","29.77","348","1.7","5.8","0.63","0.07"
"04:14:56","63.9","62.7","96","29.77","348","1.3","5","0.64","0.04"
"04:19:56","63.8","62.6","96","29.76","344","1.7","6","0.64","0.04"
"04:24:59","63.6","62.4","96","29.76","337","1.8","5.8","0.64","0.03"
"04:29:58","63.5","62.3","96","29.76","334","0.5","2.3","0.64","0.03"
"04:34:56","63.4","62.4","96.6","29.76","339","1.6","4","0.64","0.02"
"04:39:56","63.3","62.3","96.7","29.76","338","2.1","9.2","0.64","0.02"
"04:44:56","63.1","62.2","96.9","29.76","344","1.4","7","0.65","0.02"
"04:49:58","63.1","62","96.3","29.76","350","4.7","10.4","0.66","0.03"
"04:54:58","62.9","61.9","96.7","29.76","308","3.8","10.4","0.67","0.03"
"04:59:57","62.9","61.9","96.8","29.77","265","3.6","11.5","0.70","0.07"
"05:04:59","62.5","61.3","96","29.77","288","2.6","7","0.72","0.09"
"05:09:57","62","60.8","96","29.77","288","2.7","5","0.73","0.10"
"05:14:56","61.7","60.5","96","29.79","347","2.5","7","0.74","0.11"
"05:19:58","61.4","60.2","96","29.79","15","1.7","5.8","0.78","0.13"
"05:24:57","61.3","60.1","96","29.79","288","2.8","7","0.89","0.23"
"05:29:59","61.1","60","96","29.79","337","2.8","7","0.99","0.34"
"05:34:58","60.9","59.8","96","29.78","340","1.6","7","1.01","0.36"
"05:39:58","60.7","59.8","96.9","29.78","327","1.4","4","1.02","0.38"
"05:44:57","60.6","59.7","97","29.78","337","2.9","7","1.05","0.39"
"05:49:55","60.5","59.6","97","29.78","337","2.1","6.9","1.07","0.41"
"05:54:59","60.5","59.6","97","29.78","298","1.4","4","1.08","0.42"
"05:59:58","60.5","59.6","97","29.80","340","1.6","5","1.08","0.41"
"06:04:59","60.5","59.6","97","29.80","338","1.4","5","1.11","0.39"
"06:09:58","60.4","59.5","97","29.80","317","1.4","4","1.14","0.40"
"06:14:58","60.4","59.5","97","29.80","332","1.7","4","1.19","0.44"
"06:19:58","60.3","59.4","97","29.80","333","0.2","2.3","1.19","0.45"
"06:24:58","60.3","59.4","97","29.80","333","0.4","2.3","1.26","0.41"
"06:29:57","60.3","59.4","97","29.81","333","0","2","1.28","0.37"
"06:34:57","60.3","59.4","97","29.81","333","0","0","1.29","0.29"
"06:39:59","60.3","59.4","97","29.81","298","0","1","1.35","0.30"
"06:44:56","60.2","59.3","97","29.82","300","0.1","2","1.39","0.36"
"06:49:56","60.2","59.3","97.1","29.82","300","0.4","2.3","1.41","0.34"
"06:54:57","60.2","59.6","98","29.82","307","0.7","2.3","1.41","0.34"
"06:59:57","60.2","59.6","97.9","29.82","326","1.4","4","1.41","0.33"
"07:04:56","60.2","59.5","97.6","29.82","330","1.6","7","1.41","0.32"
"07:09:58","60.2","59.6","97.8","29.82","328","1.1","4","1.42","0.30"
"07:14:59","60.3","59.7","98","29.82","330","0.8","4","1.42","0.28"
"07:19:57","60.3","59.7","98","29.82","322","1.4","3.5","1.42","0.23"
"07:24:58","60.3","59.7","98","29.82","320","1.4","4","1.42","0.23"
"07:29:59","60.3","59.7","98","29.82","332","1.4","4","1.42","0.16"
"07:34:59","60.4","59.8","98","29.82","333","1.3","4","1.42","0.14"
"07:39:56","60.4","59.8","98","29.82","334","0.5","2","1.42","0.13"
"07:44:58","60.4","59.8","98","29.83","334","0.4","2.3","1.42","0.07"
"07:49:58","60.5","59.9","98","29.83","333","0.7","4","1.42","0.03"
"07:54:56","60.5","59.9","98","29.83","333","0.9","3.5","1.42","0.01"
"07:59:59","60.5","59.9","98","29.83","333","0.4","3.5","1.42","0.01"
"08:04:57","60.5","59.9","98","29.83","333","0.2","2","1.42","0.01"
"08:09:59","60.5","59.9","98","29.83","333","0.5","3.5","1.42","0.01"
"08:14:59","60.5","59.9","98","29.83","333","0.1","1.2","1.42","0.00"
"08:19:57","60.5","59.9","98","29.83","333","0","1.2","1.43","0.01"
"08:24:59","60.6","60","98","29.83","333","0.2","2.3","1.43","0.01"
"08:29:59","60.6","60","98","29.83","333","0.3","2.3","1.43","0.01"
"08:34:59","60.7","60.1","98","29.83","334","0","0","1.43","0.01"
"08:39:58","60.8","60.2","98","29.83","334","0.2","2.3","1.43","0.01"
"08:44:57","60.9","60.3","98","29.83","334","0.7","2.3","1.43","0.01"
"08:49:57","61","60.4","98","29.83","334","0.6","2.3","1.43","0.01"
"08:54:56","61.2","60.6","98","29.83","334","0.5","2","1.43","0.01"
"08:59:59","61.2","60.6","98","29.83","334","0.8","2.3","1.43","0.01"
"09:04:57","61.4","60.8","98","29.83","334","0.5","2.3","1.43","0.01"
"09:09:55","61.5","60.9","98","29.83","334","0.7","3","1.43","0.01"
"09:14:56","61.8","61.2","98","29.83","334","0.9","4","1.43","0.01"
"09:19:59","62.1","61.5","98","29.83","334","2.1","4","1.43","0.01"
"09:24:59","62.4","61.8","98","29.83","334","0.7","3.5","1.43","0.00"
"09:29:58","62.6","61.8","97.5","29.83","334","0.8","3.5","1.43","0.00"
"09:34:58","62.8","62.1","97.6","29.83","335","1.3","4","1.43","0.00"
"09:39:57","62.9","61.9","96.6","29.83","342","1.8","6","1.43","0.00"
"09:44:59","63","61.9","96.2","29.84","342","0.4","2.3","1.43","0.00"
"09:49:57","63.2","62","96","29.84","341","1","4","1.43","0.00"
"09:54:56","63.2","61.8","95.1","29.84","297","1.6","5","1.43","0.00"
"09:59:57","63.5","62","95","29.84","297","1.7","4.6","1.43","0.00"
"10:04:57","63.9","62.5","95.5","29.84","306","1.7","4","1.43","0.00"
"10:09:59","64.3","62.6","94.3","29.84","325","2.1","5","1.43","0.00"
"10:14:59","64.6","62.3","92.4","29.85","313","1.8","4","1.43","0.00"
"10:19:58","65","62.9","92.8","29.85","296","1.8","5","1.43","0.00"
"10:24:56","65.4","62.6","90.6","29.85","326","2.9","6","1.43","0.00"
"10:29:59","65.6","62.4","89.3","29.86","302","1.5","4.6","1.43","0.00"
"10:34:58","65.8","62.7","89.6","29.86","352","1.3","4","1.43","0.00"
"10:39:58","66.3","63","89.2","29.86","321","1.5","7","1.43","0.00"
"10:44:59","67","63.8","89.3","29.86","347","1.4","5","1.43","0.00"
"10:49:59","67.6","63.5","86.7","29.86","336","1.5","6","1.43","0.00"
"10:54:55","67.7","63.4","85.9","29.86","335","1.8","6","1.43","0.00"
"10:59:55","68.1","63.9","86.4","29.87","274","0.8","3.5","1.43","0.00"
"11:04:56","69","64.3","85","29.87","331","1.8","6","1.43","0.00"
"11:09:58","69.3","63.3","81.3","29.87","344","2.6","9.2","1.43","0.00"
"11:14:58","69","63.2","81.6","29.87","332","1.9","6","1.43","0.00"
"11:19:57","68.8","62.8","81.1","29.87","322","3","6","1.43","0.00"
"11:24:55","69","61.9","78.1","29.87","312","3","7","1.43","0.00"
"11:29:57","69.3","62.1","78","29.87","316","1.8","5","1.43","0.00"
"11:34:57","69.8","62.1","76.8","29.87","248","2.6","6","1.43","0.00"
"11:39:56","70.1","62.1","75.8","29.87","218","3.2","6","1.43","0.00"
"11:44:55","70.3","62.5","76.6","29.87","323","2","9","1.43","0.00"
"11:49:59","70.3","61.5","73.8","29.86","313","2.9","7","1.43","0.00"
"11:54:57","70.1","61.3","73.6","29.86","272","2","6","1.43","0.00"
"11:59:59","70.4","60.9","71.9","29.86","316","3","6","1.43","0.00"
"12:04:56","70.7","61.1","72","29.86","274","2.9","6","1.43","0.00"
"12:09:58","71.1","62.4","74","29.86","223","3.1","7","1.43","0.00"
"12:14:57","71.9","63.9","75.9","29.86","231","2.6","7","1.43","0.00"
"12:19:59","72.7","63.6","73.3","29.86","272","2.7","6.9","1.43","0.00"
"12:24:57","72.7","62.3","70","29.86","263","2","9","1.43","0.00"
"12:29:56","72.2","61.6","69.2","29.87","275","2.6","9.2","1.43","0.00"
"12:34:57","71.7","61","68.9","29.87","313","2.7","6","1.43","0.00"
"12:39:59","71.5","61.4","70.4","29.87","339","1.8","5.8","1.43","0.00"
"12:44:58","71.5","60.8","69.1","29.87","326","2.6","6","1.43","0.00"
"12:49:56","71.6","60.9","69.1","29.87","284","2.5","6","1.43","0.00"
"12:54:57","71.5","61","69.6","29.87","304","1.5","5","1.43","0.00"
"12:59:56","71.4","61.7","71.4","29.88","240","2.3","5","1.43","0.00"
"13:04:56","71.5","61.6","71","29.88","285","1.8","5","1.43","0.00"
"13:09:58","71.3","60.4","68.5","29.88","283","1.8","4","1.43","0.00"
"13:14:57","71.2","60.7","69.6","29.88","261","1.6","6","1.43","0.00"
"13:19:58","71.8","61.8","70.8","29.88","203","1.8","6","1.43","0.00"
"13:24:57","72.2","60.3","66.1","29.88","313","2","4.6","1.43","0.00"
"13:29:59","72.2","61.4","68.8","29.88","248","2","7","1.43","0.00"
"13:34:58","72.4","61.4","68.3","29.88","289","2.4","4.6","1.43","0.00"
"13:39:59","72.8","61.5","67.6","29.88","247","2.3","5","1.43","0.00"
"13:44:57","73.2","61.4","66.5","29.88","272","3","7","1.43","0.00"
"13:49:59","73.7","61.5","65.7","29.87","332","2.8","7","1.43","0.00"
"13:54:56","74.1","61.9","65.7","29.87","220","2.7","5","1.43","0.00"
"13:59:59","74","62.1","66.5","29.88","206","3.1","5","1.43","0.00"
"14:04:59","73.7","61.2","65","29.88","232","3.5","6","1.43","0.00"
"14:09:57","73.1","60.6","64.9","29.88","207","2.5","4.6","1.43","0.00"
"14:14:57","72.9","60.7","65.7","29.88","218","1.7","5","1.43","0.00"
"14:19:58","72.8","60.2","64.6","29.88","304","1.8","4","1.43","0.00"
"14:24:58","73","60.3","64.2","29.88","278","2.1","6","1.43","0.00"
"14:29:57","73.2","60.4","64.3","29.88","270","2.2","5","1.43","0.00"
"14:34:59","73.7","61","64.6","29.88","253","2.5","5","1.43","0.00"
"14:39:56","74.4","61.5","64.2","29.88","254","2.6","9.2","1.43","0.00"
"14:44:57","74.9","61.2","62.6","29.88","268","2.5","9.2","1.43","0.00"
"14:49:56","74.9","61.4","63","29.86","273","2.7","5","1.43","0.00"
"14:54:57","75.3","62.2","63.7","29.86","231","3","10","1.43","0.00"
"14:59:56","75.7","61.9","62.3","29.87","287","2.6","9.2","1.43","0.00"
"15:04:56","75.7","60.6","59.5","29.87","289","1.8","5","1.43","0.00"
"15:09:58","75.8","61.6","61.6","29.87","339","3.6","10.4","1.43","0.00"
"15:14:59","75.4","60.3","59.5","29.87","319","4.2","10.4","1.43","0.00"
"15:19:56","74.6","60.1","60.6","29.86","309","3.9","9.2","1.43","0.00"
"15:24:58","74.2","59.9","61.1","29.86","336","2.5","9.2","1.43","0.00"
"15:29:56","73.9","60.3","62.5","29.86","344","1.6","4","1.43","0.00"
"15:34:59","73.3","58.7","60.3","29.86","335","3.1","9","1.43","0.00"
"15:39:58","72.8","59.1","62.2","29.86","343","1","5","1.43","0.00"
"15:44:57","72.6","59.1","62.6","29.87","317","2.5","6","1.43","0.00"
"15:49:59","73","59","61.5","29.87","315","3.7","9.2","1.43","0.00"
"15:54:56","73.2","58.6","60.3","29.87","300","2.4","5","1.43","0.00"
"15:59:59","73.2","59","61.3","29.87","288","2.1","5","1.43","0.00"
"16:04:56","73","59.8","63.2","29.87","322","2.6","7","1.43","0.00"
"16:09:58","72.7","59.1","62.5","29.87","342","2.2","5","1.43","0.00"
"16:14:58","72.3","59.2","63.6","29.88","323","1.9","5","1.43","0.00"
"16:19:56","72","59.3","64.3","29.88","286","2.2","5","1.43","0.00"
"16:24:57","71.8","60","66.3","29.88","265","2.7","13","1.43","0.00"
"16:29:59","71.5","58.8","64.2","29.89","339","2.1","9.2","1.43","0.00"
"16:34:56","71.3","58.6","64.1","29.89","319","3.5","10.4","1.43","0.00"
"16:39:56","71","58.6","65","29.89","330","1.6","7","1.43","0.00"
"16:44:58","70.8","58.7","65.5","29.90","354","2.8","9.2","1.43","0.00"
"16:49:57","70.8","57.7","63.3","29.90","306","3.2","7","1.43","0.00"
"16:54:57","71.1","58.7","64.8","29.90","318","2.6","7","1.43","0.00"
"16:59:57","71.8","58.2","62.1","29.90","312","3.1","10","1.43","0.00"
"17:04:59","72.1","57.4","60.1","29.90","306","2.5","9","1.43","0.00"
"17:09:56","72.2","58.2","61.3","29.90","293","2.6","6","1.43","0.00"
"17:14:59","72.3","58.1","61","29.91","295","2.8","10.4","1.43","0.00"
"17:19:57","72.1","56.9","58.7","29.91","314","4.1","10","1.43","0.00"
"17:24:57","71.8","56.2","57.9","29.91","342","5.2","15","1.43","0.00"
"17:29:56","71.3","56.1","58.8","29.91","337","3.4","10.4","1.43","0.00"
"17:34:58","70.5","55.4","58.9","29.91","333","4","13","1.43","0.00"
"17:39:59","69.6","54.6","59","29.91","320","4.7","12","1.43","0.00"
"17:44:57","69.1","55.2","61.3","29.93","306","2.1","9","1.43","0.00"
"17:49:56","68.8","55.3","62.1","29.93","303","3.9","11.5","1.43","0.00"
"17:54:58","68.6","55.1","62.3","29.93","331","3","8.1","1.43","0.00"
"17:59:59","68.5","55.6","63.6","29.93","338","1.2","5","1.43","0.00"
"18:04:59","68.4","55.3","63","29.93","340","2.3","9.2","1.43","0.00"
"18:09:57","68.3","55","62.7","29.93","335","2","10.4","1.43","0.00"
"18:14:56","68","55","63","29.94","322","2.7","6","1.43","0.00"
"18:19:58","67.7","54.6","62.9","29.94","318","3.2","8","1.43","0.00"
"18:24:57","67.2","54.2","63","29.94","336","2.5","8.1","1.43","0.00"
"18:29:56","66.8","54.2","64","29.96","348","2.7","7","1.43","0.00"
"18:34:59","66.3","53.9","64.3","29.96","310","2.4","7","1.43","0.00"
"18:39:56","65.7","53.5","64.7","29.96","327","2","6.9","1.43","0.00"
"18:44:56","65.3","53.5","65.5","29.96","343","1.3","6","1.43","0.00"
"18:49:57","65","53.8","67","29.96","345","0.6","5","1.43","0.00"
"18:54:58","64.6","53.5","67.3","29.96","343","1.3","5","1.43","0.00"
"18:59:59","64.2","53.4","68.1","29.97","338","1.4","4.6","1.43","0.00"
"19:04:56","63.9","53.5","68.9","29.97","338","0.9","3.5","1.43","0.00"
"19:09:59","63.6","53.6","70.1","29.97","354","0.5","4","1.43","0.00"
"19:14:59","63.1","53.3","70.3","29.98","280","1.8","7","1.43","0.00"
"19:19:58","62.8","52.6","69.3","29.98","326","1.7","6","1.43","0.00"
"19:24:57","62.7","52.1","68.4","29.98","337","1.9","6","1.43","0.00"
"19:29:56","62.6","52.5","69.5","29.98","306","0.7","4","1.43","0.00"
"19:34:59","62.5","52.2","68.9","29.98","324","0.9","4","1.43","0.00"
"19:39:58","62.4","52.1","68.9","29.98","327","1","3.5","1.43","0.00"
"19:44:57","62.3","51.7","68.2","29.99","327","0.6","4","1.43","0.00"
"19:49:57","62.2","51.6","68.2","29.99","328","0.9","3.5","1.43","0.00"
"19:54:57","62.1","51.6","68.5","29.99","328","0","1.2","1.43","0.00"
"19:59:57","61.9","51.6","68.9","29.99","328","0","0","1.43","0.00"
"20:04:55","61.7","51.9","70.2","29.99","328","0","0","1.43","0.00"
"20:09:58","61.4","52.4","72.2","29.99","328","0","1.2","1.43","0.00"
"20:14:58","60.9","52","72.5","30.00","328","0","0","1.43","0.00"
"20:19:58","60.5","51.9","73.2","30.00","328","0","0","1.43","0.00"
"20:24:58","60.1","52.9","77.3","30.00","328","0","0","1.43","0.00"
"20:29:59","59.5","53.1","79.4","30.01","328","0","0","1.43","0.00"
"20:34:58","59","52.8","80","30.01","328","0","0","1.43","0.00"
"20:39:57","58.5","52.6","80.9","30.01","328","0","0","1.43","0.00"
"20:44:56","58.1","52.8","82.5","30.01","328","0","0","1.43","0.00"
"20:49:56","57.7","52.7","83.3","30.01","328","0","1","1.43","0.00"
"20:54:59","57.5","53.2","85.4","30.01","328","0","0","1.43","0.00"
"20:59:59","57.5","53.4","86.3","30.01","328","0","0","1.43","0.00"
"21:04:57","57.4","53.6","87","30.01","328","0","0","1.43","0.00"
"21:09:56","57.3","53.5","87","30.01","328","0","0","1.43","0.00"
"21:14:59","57.1","53.3","87","30.01","328","0","0","1.43","0.00"
"21:19:57","56.8","53","87","30.01","328","0","0","1.43","0.00"
"21:24:59","56.5","53","88","30.01","328","0","0","1.43","0.00"
"21:29:57","56.3","52.8","88","30.02","328","0","0","1.43","0.00"
"21:34:59","56.1","52.6","88","30.02","328","0","0","1.43","0.00"
"21:39:58","55.9","52.6","88.6","30.02","328","0","0","1.43","0.00"
"21:44:57","55.7","52.5","89","30.03","328","0","0","1.43","0.00"
"21:49:59","55.4","52.2","89","30.03","328","0","0","1.43","0.00"
"21:54:59","55.2","52.3","89.9","30.03","328","0","0","1.43","0.00"
"21:59:58","55","52.3","90.5","30.03","328","0","0","1.43","0.00"
"22:04:56","55","52.6","91.8","30.03","328","0","0","1.43","0.00"
"22:09:59","55","52.7","92","30.03","328","0","0","1.43","0.00"
"22:14:57","54.9","52.4","91.2","30.03","328","0","1.2","1.43","0.00"
"22:19:56","54.7","52.1","91","30.03","328","0.1","1.2","1.43","0.00"
"22:24:59","54.4","51.9","91.2","30.03","328","0.1","1.2","1.43","0.00"
"22:29:59","54.1","51.8","92","30.03","328","0","1.2","1.43","0.00"
"22:34:58","53.9","51.7","92.2","30.03","328","0","0","1.43","0.00"
"22:39:57","53.8","51.8","93","30.03","328","0","0","1.43","0.00"
"22:44:56","53.8","51.8","93","30.03","328","0","0","1.43","0.00"
"22:49:59","53.7","51.7","93","30.03","328","0","0","1.43","0.00"
"22:54:58","53.5","51.6","93.2","30.03","328","0.3","2.3","1.43","0.00"
"22:59:58","53.5","51.8","94","30.03","328","0","2.3","1.43","0.00"
"23:04:59","53.5","51.8","94","30.03","328","0","0","1.43","0.00"
"23:09:58","53.3","51.4","93.3","30.03","328","0","0","1.43","0.00"
"23:14:57","53.1","51.2","93.3","30.03","328","0","0","1.43","0.00"
"23:19:56","53.1","51.4","94","30.03","328","0","0","1.43","0.00"
"23:24:58","53","51.3","94","30.03","328","0","0","1.43","0.00"
"23:29:56","52.9","51.2","94","30.03","328","0","0","1.43","0.00"
"23:34:59","52.8","51.1","94","30.03","328","0","0","1.43","0.00"
"23:39:59","52.8","51.1","94","30.03","328","0","0","1.43","0.00"
"23:44:58","52.7","51","94","30.03","328","0","0","1.43","0.00"
"23:49:58","52.5","50.8","94","30.03","328","0.1","1.2","1.43","0.00"
"23:54:55","52.5","51.1","95","30.03","328","0.2","1.2","1.43","0.00"
"23:59:56","52.4","51","94.9","30.04","328","0","1","1.43","0.00"
